Location: ?????????
(53.2086°N, 54.0693°E)
Time: 17:05:52
(UTC+00:00)

Lacrosse 4 Rocket - Pass Details

Date: 08 December 2019
Orbit: 540 x 619 km, 68.0° (Epoch: 29 January)

Event Time Altitude Azimuth Distance (km) Brightness Sun altitude
Rises 13:44:05 0° 312° (NW) 2,722 5.3 -13.5°
Reaches altitude 10° 13:48:09 10° 352° (N) 1,843 3.9 -14.1°
Maximum altitude 13:49:06 11° 5° (N) 1,805 3.7 -14.2°
Enters shadow 13:49:59 10° 18° (NNE) 1,846 3.7 -14.4°
